Terminal Aerodrome Forecast
Issued by NWS

Home | Current Version | Previous Version | Text Only | Print | Product List | Glossary On
Versions: 1 2 3 4 5 6 7 8 9 10 11 12 13 14
000
FTUS42 TJSJ 040539
TAFNCM
TAF
TNCM 040539Z 0406/0506 07012G24KT P6SM VCSH BKN018
     FM040900 08015KT P6SM SCT019
     FM041330 08015KT P6SM SCT025
     FM042300 09012KT P6SM VCSH FEW018 SCT050=

USA.gov is the U.S. government's official web portal to all federal, state and local government web resources and services.